This is the latest recevied weather packets stored in our database for station/object YF9UAG-17. If no packets are shown the sender has not sent any weather packets the latest 10 day(s).
| Time | Temp. | Humidity | Pressure | Rain* | Wind** | Luminosity | Snow |
|---|---|---|---|---|---|---|---|
| 1777689358 | 28.33° C | 76% | 942 hPa | - | - | 0 W/m² | - |
| 1777688436 | 27.22° C | 77% | 942 hPa | - | - | 0 W/m² | - |
| 1777687515 | 26.67° C | 73% | 942 hPa | - | - | 0 W/m² | - |
| 1777686592 | 27.22° C | 73% | 942 hPa | - | - | 0 W/m² | - |
| 1777685670 | 26.67° C | 71% | 942 hPa | - | - | 0 W/m² | - |
| 1777684748 | 26.11° C | 73% | 941 hPa | - | - | 0 W/m² | - |
| 1777683826 | 26.11° C | 73% | 941 hPa | - | - | 0 W/m² | - |
| 1777682905 | 26.11° C | 72% | 941 hPa | - | - | 0 W/m² | - |
| 1777681982 | 25.56° C | 72% | 941 hPa | - | - | 0 W/m² | - |
| 1777681060 | 26.11° C | 70% | 941 hPa | - | - | 0 W/m² | - |
| 1777680138 | 26.11° C | 69% | 941 hPa | - | - | 0 W/m² | - |
| 1777679216 | 26.11° C | 69% | 941 hPa | - | - | 0 W/m² | - |
| 1777678294 | 26.11° C | 68% | 941 hPa | - | - | 0 W/m² | - |
| 1777677372 | 25.56° C | 69% | 941 hPa | - | - | 0 W/m² | - |
| 1777676450 | 25° C | 70% | 941 hPa | - | - | 0 W/m² | - |
| 1777675528 | 25.56° C | 68% | 941 hPa | - | - | 0 W/m² | - |
| 1777674607 | 26.11° C | 67% | 940 hPa | - | - | 0 W/m² | - |
| 1777673684 | 26.11° C | 67% | 940 hPa | - | - | 0 W/m² | - |
| 1777672762 | 26.11° C | 68% | 940 hPa | - | - | 0 W/m² | - |
| 1777671840 | 26.11° C | 67% | 940 hPa | - | - | 0 W/m² | - |
| 1777670918 | 26.11° C | 68% | 940 hPa | - | - | 0 W/m² | - |
| 1777669970 | 26.11° C | 68% | 940 hPa | - | - | 0 W/m² | - |
| 1777669048 | 26.11° C | 69% | 940 hPa | - | - | 0 W/m² | - |
| 1777668126 | 26.11° C | 69% | 940 hPa | - | - | 0 W/m² | - |
| 1777667204 | 26.11° C | 68% | 940 hPa | - | - | 0 W/m² | - |
* Rain since midnight (hover to see other rain measurements)
** Current wind speed in m/s (hover to see current wind gust speed)